Time,TemperatureF,DewpointF,PressureIn,WindDirection,WindDirectionDegrees,WindSpeedMPH,WindSpeedGustMPH,Humidity,HourlyPrecipIn,Conditions,Clouds,dailyrainin,SolarRadiationWatts/m^2,SoftwareType,DateUTC
2013-09-20 02:00:00,48.0,44.0,-100.00,ENE,73,1.0,4.0,84,-99.99,,,0.00,0.000000,,2013-09-20 08:00:00,
2013-09-20 02:52:00,48.0,44.0,-100.00,ENE,73,1.0,4.0,84,-99.99,,,0.00,0.000000,,2013-09-20 08:52:00,
2013-09-20 04:00:00,47.0,44.0,-100.00,ESE,108,1.0,5.0,89,-99.99,,,-99.99,0.000000,,2013-09-20 10:00:00,
2013-09-20 04:53:00,47.0,44.0,-100.00,ESE,108,1.0,5.0,89,-99.99,,,-99.99,0.000000,,2013-09-20 10:53:00,
2013-09-20 05:00:00,45.0,42.0,-100.00,SSE,154,1.0,4.0,90,-99.99,,,0.00,0.000000,,2013-09-20 11:00:00,
2013-09-20 05:52:00,45.0,42.0,-100.00,SSE,154,1.0,4.0,90,-99.99,,,0.00,0.000000,,2013-09-20 11:52:00,
2013-09-20 06:00:00,43.0,40.0,-100.00,SSE,150,1.0,4.0,88,-99.99,,,0.00,0.000000,,2013-09-20 12:00:00,
2013-09-20 06:52:00,43.0,40.0,-100.00,SSE,150,1.0,4.0,88,-99.99,,,0.00,0.000000,,2013-09-20 12:52:00,
2013-09-20 10:00:00,54.0,47.0,-100.00,South,187,1.0,3.0,77,-99.99,,,0.00,538.500000,,2013-09-20 16:00:00,
2013-09-20 10:53:00,54.0,47.0,-100.00,South,187,1.0,3.0,77,-99.99,,,0.00,538.500000,,2013-09-20 16:53:00,
2013-09-20 13:00:00,66.0,34.0,-100.00,NW,311,1.0,4.0,31,-99.99,,,0.00,887.400024,,2013-09-20 19:00:00,
2013-09-20 13:53:00,66.0,34.0,-100.00,NW,311,1.0,4.0,31,-99.99,,,0.00,887.400024,,2013-09-20 19:53:00,
2013-09-20 15:00:00,68.0,32.0,-100.00,WNW,282,1.0,4.0,27,-99.99,,,0.00,805.900024,,2013-09-20 21:00:00,
2013-09-20 15:55:00,68.0,32.0,-100.00,WNW,282,1.0,4.0,27,-99.99,,,0.00,805.900024,,2013-09-20 21:55:00,
2013-09-20 17:00:00,63.0,31.0,-100.00,West,272,1.0,4.0,30,-99.99,,,0.00,29.900000,,2013-09-20 23:00:00,
2013-09-20 17:53:00,63.0,31.0,-100.00,West,272,1.0,4.0,30,-99.99,,,0.00,29.900000,,2013-09-20 23:53:00,
2013-09-20 22:00:00,44.0,40.0,-100.00,South,172,0.0,1.0,86,-99.99,,,0.00,0.000000,,2013-09-21 04:00:00,
2013-09-20 22:54:00,44.0,40.0,-100.00,South,172,0.0,1.0,86,-99.99,,,0.00,0.000000,,2013-09-21 04:54:00,
2013-09-20 23:00:00,43.0,40.0,-100.00,South,176,0.0,1.0,90,-99.99,,,0.00,0.000000,,2013-09-21 05:00:00,
2013-09-20 23:53:00,43.0,40.0,-100.00,South,176,0.0,1.0,90,-99.99,,,0.00,0.000000,,2013-09-21 05:53:00,